contact:dominique.lefevre@mio.osupytheas.fr, maurice.libes@osupytheas.fr, didier.mallarino@osupytheas.fr
Project:EMSO http://www.emso-fr.org/EMSO-France
Depth: 2436.0 m
Title:EMSO Ligure Ouest : Data MII capteur AQUADOPP
Date,Latitude,Longitude,X_East,Y_North,Z_Up,Amplitude_X,Amplitude_Y,Amplitude_Z,Batterie,SoundSpeed,Heading,Pitch,Roll,Pressure,TIS,Speed,Direction
, degrees North, degrees East, m.s-1, m.s-1,m.s-1, 1, 1, 1, Volt, m.s-1, degree, degree, degree, dbar, degree_C, m.s-1, degree
2021-04-30T00:04:03,42.805,6.029,0.033,-0.033,-0.007,102.0,103.0,101.0,13.3,1505.2,326.8,-0.8,1.8,2469.098,13.28,0.046,135.0
2021-04-30T00:07:03,42.805,6.029,0.023,-0.027,0.058,101.0,102.0,100.0,13.3,1505.2,327.3,-0.8,1.8,2469.095,13.28,0.035,139.6
2021-04-30T00:10:03,42.805,6.029,0.02,-0.029,0.026,102.0,103.0,101.0,13.3,1505.2,324.3,-0.7,1.9,2469.107,13.28,0.035,145.4
2021-04-30T00:13:03,42.805,6.029,0.032,-0.02,-0.003,101.0,102.0,101.0,13.4,1505.2,325.9,-0.7,1.8,2469.113,13.28,0.037,122.0
2021-04-30T00:16:03,42.805,6.029,0.035,-0.026,0.014,101.0,103.0,101.0,13.4,1505.2,325.7,-0.7,1.9,2469.128,13.28,0.043,126.6
2021-04-30T00:19:03,42.805,6.029,0.042,-0.027,0.014,103.0,103.0,101.0,13.3,1505.2,328.5,-0.8,1.8,2469.036,13.28,0.049,122.7
2021-04-30T00:22:03,42.805,6.029,0.037,-0.033,-0.01,102.0,104.0,101.0,13.4,1505.2,327.9,-0.7,1.8,2469.152,13.28,0.049,131.7
2021-04-30T00:25:03,42.805,6.029,0.043,-0.023,0.021,100.0,103.0,102.0,13.4,1505.2,328.8,-0.8,1.9,2469.128,13.28,0.048,118.1
2021-04-30T00:28:03,42.805,6.029,0.046,-0.043,0.0,102.0,103.0,101.0,13.4,1505.2,327.3,-0.7,1.8,2469.095,13.28,0.062,133.1
2021-04-30T00:31:03,42.805,6.029,0.058,-0.04,-0.002,101.0,102.0,102.0,13.3,1505.2,326.9,-0.8,1.8,2469.116,13.28,0.07,124.6
2021-04-30T00:34:03,42.805,6.029,0.055,-0.017,0.024,101.0,101.0,101.0,13.3,1505.2,324.4,-0.7,1.8,2469.149,13.28,0.057,107.2
2021-04-30T00:37:03,42.805,6.029,0.041,-0.033,-0.005,102.0,103.0,101.0,13.4,1505.2,326.4,-0.7,1.8,2469.122,13.28,0.052,128.8
2021-04-30T00:40:03,42.805,6.029,0.03,-0.044,0.003,103.0,102.0,101.0,13.3,1505.2,329.3,-0.8,1.8,2469.144,13.28,0.053,145.7
2021-04-30T00:43:03,42.805,6.029,0.052,-0.025,0.007,101.0,103.0,101.0,13.4,1505.2,324.7,-0.8,1.8,2469.153,13.28,0.057,115.7
2021-04-30T00:46:03,42.805,6.029,0.049,-0.023,0.024,99.0,102.0,102.0,13.4,1505.2,328.1,-0.7,1.9,2469.191,13.28,0.054,115.1
2021-04-30T00:49:03,42.805,6.029,0.039,-0.02,-0.002,102.0,102.0,100.0,13.4,1505.2,326.2,-0.8,1.8,2469.147,13.28,0.043,117.1
2021-04-30T00:52:03,42.805,6.029,0.018,-0.027,0.015,101.0,102.0,101.0,13.4,1505.2,326.1,-0.8,1.8,2469.204,13.28,0.032,146.3
2021-04-30T00:55:03,42.805,6.029,0.018,-0.018,0.015,102.0,102.0,101.0,13.3,1505.2,327.2,-0.8,1.9,2469.198,13.28,0.025,135.0
2021-04-30T00:58:03,42.805,6.029,0.053,-0.041,0.013,101.0,104.0,100.0,13.4,1505.2,325.4,-0.8,1.8,2469.194,13.28,0.067,127.7
2021-04-30T01:04:03,42.805,6.029,0.018,-0.027,0.018,102.0,101.0,101.0,13.4,1505.2,328.1,-0.8,1.8,2469.201,13.28,0.032,146.3
2021-04-30T01:07:03,42.805,6.029,0.045,-0.048,-0.017,102.0,100.0,100.0,13.4,1505.2,323.5,-0.7,1.8,2469.198,13.28,0.065,136.9
2021-04-30T01:10:03,42.805,6.029,0.029,-0.028,0.01,102.0,101.0,100.0,13.3,1505.2,327.9,-0.7,1.8,2469.202,13.28,0.04,134.0
2021-04-30T01:13:03,42.805,6.029,0.062,-0.031,0.047,102.0,102.0,101.0,13.4,1505.2,323.9,-0.7,1.8,2469.232,13.28,0.069,116.6
2021-04-30T01:16:03,42.805,6.029,0.017,-0.027,0.003,102.0,101.0,101.0,13.4,1505.2,325.6,-0.8,1.8,2469.217,13.28,0.031,147.8
2021-04-30T01:19:03,42.805,6.029,0.019,-0.019,-0.001,102.0,102.0,101.0,13.4,1505.2,326.6,-0.7,1.8,2469.212,13.28,0.026,135.0
2021-04-30T01:22:03,42.805,6.029,0.035,-0.021,-0.004,101.0,104.0,100.0,13.4,1505.2,328.4,-0.8,1.9,2469.254,13.28,0.04,121.0
2021-04-30T01:25:03,42.805,6.029,0.045,-0.031,-0.002,103.0,102.0,101.0,13.4,1505.2,325.8,-0.8,1.8,2469.205,13.28,0.054,124.6
2021-04-30T01:28:03,42.805,6.029,0.034,-0.036,0.005,102.0,103.0,99.0,13.4,1505.2,329.4,-0.8,1.8,2469.2,13.28,0.049,136.6
2021-04-30T01:31:03,42.805,6.029,0.012,-0.028,0.028,101.0,102.0,101.0,13.4,1505.2,327.7,-0.8,1.9,2469.235,13.28,0.03,156.8
2021-04-30T01:34:03,42.805,6.029,0.032,-0.03,-0.003,101.0,102.0,100.0,13.4,1505.2,324.7,-0.7,1.8,2469.204,13.28,0.043,133.1
2021-04-30T01:37:03,42.805,6.029,0.056,-0.021,0.023,101.0,103.0,100.0,13.4,1505.2,327.6,-0.8,1.8,2469.281,13.28,0.059,110.6
2021-04-30T01:40:03,42.805,6.029,0.033,-0.008,-0.004,100.0,101.0,101.0,13.4,1505.2,328.7,-0.7,1.8,2469.28,13.28,0.033,103.6
2021-04-30T01:43:03,42.805,6.029,0.031,-0.043,-0.001,101.0,102.0,100.0,13.4,1505.2,325.1,-0.7,1.9,2469.257,13.28,0.053,144.2
2021-04-30T01:46:03,42.805,6.029,0.071,-0.031,0.022,101.0,103.0,99.0,13.4,1505.2,325.4,-0.7,1.8,2469.282,13.28,0.077,113.6
2021-04-30T01:49:03,42.805,6.029,0.042,-0.024,0.015,101.0,101.0,101.0,13.4,1505.2,324.2,-0.7,1.8,2469.245,13.28,0.048,119.7
2021-04-30T01:52:03,42.805,6.029,0.042,-0.017,0.011,102.0,104.0,100.0,13.4,1505.2,327.7,-0.7,1.8,2469.264,13.28,0.045,112.0
2021-04-30T01:55:03,42.805,6.029,0.02,-0.04,0.008,101.0,102.0,100.0,13.4,1505.2,327.3,-0.8,1.8,2469.254,13.28,0.044,153.4
2021-04-30T01:58:03,42.805,6.029,0.029,-0.038,0.018,102.0,102.0,101.0,13.4,1505.2,326.9,-0.7,1.8,2469.299,13.28,0.047,142.7
2021-04-30T02:04:03,42.805,6.029,0.024,-0.034,0.035,100.0,102.0,100.0,13.4,1505.2,324.5,-0.8,1.8,2469.287,13.28,0.041,144.8
2021-04-30T02:07:03,42.805,6.029,0.031,-0.03,0.022,101.0,102.0,101.0,13.4,1505.2,328.2,-0.7,1.8,2469.301,13.28,0.043,134.1
2021-04-30T02:10:03,42.805,6.029,0.027,-0.025,0.027,100.0,102.0,101.0,13.4,1505.2,327.5,-0.7,1.8,2469.262,13.28,0.036,132.8
2021-04-30T02:13:03,42.805,6.029,0.033,-0.056,0.007,103.0,103.0,100.0,13.3,1505.2,328.3,-0.8,1.8,2469.257,13.28,0.064,149.5
2021-04-30T02:16:03,42.805,6.029,0.01,-0.023,-0.004,101.0,104.0,100.0,13.4,1505.2,325.6,-0.7,1.8,2469.251,13.28,0.025,156.5
2021-04-30T02:19:03,42.805,6.029,0.017,-0.021,0.013,101.0,103.0,100.0,13.4,1505.2,328.9,-0.8,1.8,2469.293,13.28,0.027,141.0
2021-04-30T02:22:03,42.805,6.029,0.017,-0.014,-0.01,103.0,103.0,100.0,13.4,1505.2,326.0,-0.7,1.8,2469.254,13.28,0.022,129.5
2021-04-30T02:25:03,42.805,6.029,0.07,-0.021,0.033,101.0,103.0,100.0,13.4,1505.2,328.7,-0.8,1.8,2469.281,13.28,0.073,106.7
2021-04-30T02:28:03,42.805,6.029,0.025,-0.022,0.019,100.0,102.0,101.0,13.4,1505.2,323.8,-0.7,1.8,2469.285,13.28,0.033,131.3
2021-04-30T02:31:03,42.805,6.029,0.029,-0.035,-0.007,100.0,104.0,101.0,13.4,1505.2,325.7,-0.8,1.8,2469.309,13.28,0.045,140.4
2021-04-30T02:34:03,42.805,6.029,0.027,-0.016,0.033,102.0,101.0,102.0,13.4,1505.2,327.8,-0.8,1.8,2469.276,13.28,0.031,120.7
2021-04-30T02:37:03,42.805,6.029,0.036,-0.02,-0.008,100.0,103.0,100.0,13.4,1505.2,327.2,-0.8,1.8,2469.331,13.28,0.041,119.1
2021-04-30T02:40:03,42.805,6.029,0.03,-0.03,-0.019,102.0,104.0,101.0,13.4,1505.2,324.0,-0.8,1.8,2469.289,13.28,0.042,135.0
2021-04-30T02:43:03,42.805,6.029,0.026,-0.023,0.017,102.0,101.0,102.0,13.4,1505.2,327.6,-0.7,1.8,2469.296,13.28,0.034,131.5
2021-04-30T02:46:03,42.805,6.029,0.028,-0.026,0.002,102.0,103.0,100.0,13.4,1505.2,324.6,-0.8,1.8,2469.309,13.28,0.038,132.9
2021-04-30T02:49:03,42.805,6.029,0.035,-0.029,0.013,102.0,101.0,102.0,13.4,1505.2,328.1,-0.7,1.8,2469.287,13.28,0.045,129.6
2021-04-30T02:52:03,42.805,6.029,0.047,-0.003,0.035,101.0,102.0,101.0,13.3,1505.2,326.5,-0.7,1.8,2469.284,13.28,0.047,93.6
2021-04-30T02:55:03,42.805,6.029,0.0,-0.006,0.009,100.0,103.0,101.0,13.4,1505.2,325.2,-0.7,1.8,2469.252,13.28,0.006,180.0
2021-04-30T02:58:03,42.805,6.029,0.028,-0.03,0.009,101.0,104.0,100.0,13.4,1505.2,326.0,-0.7,1.8,2469.29,13.28,0.041,137.0
2021-04-30T03:04:03,42.805,6.029,0.039,-0.047,0.004,101.0,103.0,100.0,13.3,1505.2,326.2,-0.8,1.8,2469.274,13.28,0.061,140.3
2021-04-30T03:07:03,42.805,6.029,0.049,-0.015,0.014,101.0,103.0,101.0,13.4,1505.2,324.0,-0.8,1.8,2469.279,13.28,0.051,107.0
2021-04-30T03:10:03,42.805,6.029,0.049,-0.023,0.001,101.0,103.0,100.0,13.4,1505.2,326.2,-0.7,1.8,2469.254,13.28,0.054,115.1
2021-04-30T03:13:03,42.805,6.029,0.03,-0.043,-0.002,101.0,102.0,101.0,13.4,1505.2,327.1,-0.7,1.8,2469.301,13.28,0.052,145.1
2021-04-30T03:16:03,42.805,6.029,0.007,-0.012,0.014,101.0,103.0,101.0,13.3,1505.2,324.1,-0.7,1.8,2469.233,13.28,0.013,149.7
2021-04-30T03:19:03,42.805,6.029,0.043,-0.046,-0.001,101.0,103.0,101.0,13.4,1505.2,326.5,-0.8,1.8,2469.304,13.28,0.062,136.9
2021-04-30T03:22:03,42.805,6.029,0.034,-0.022,0.02,101.0,103.0,100.0,13.4,1505.2,328.7,-0.8,1.8,2469.285,13.28,0.04,122.9
2021-04-30T03:25:03,42.805,6.029,0.047,-0.041,-0.002,101.0,103.0,101.0,13.3,1505.2,327.2,-0.7,1.8,2469.28,13.28,0.062,131.1
2021-04-30T03:28:03,42.805,6.029,0.043,-0.003,0.036,102.0,102.0,101.0,13.4,1505.2,326.7,-0.7,1.8,2469.273,13.28,0.043,94.0
2021-04-30T03:31:03,42.805,6.029,0.027,-0.029,0.0,101.0,103.0,101.0,13.4,1505.2,329.2,-0.7,1.9,2469.289,13.28,0.039,137.0
2021-04-30T03:34:03,42.805,6.029,0.027,-0.035,0.001,101.0,103.0,101.0,13.4,1505.2,325.5,-0.8,1.9,2469.282,13.28,0.044,142.3
2021-04-30T03:37:03,42.805,6.029,0.028,-0.012,0.024,102.0,103.0,101.0,13.4,1505.2,324.5,-0.8,1.8,2469.3,13.28,0.03,113.2
2021-04-30T03:40:03,42.805,6.029,0.033,-0.031,0.025,100.0,103.0,101.0,13.4,1505.2,329.0,-0.7,1.8,2469.279,13.28,0.045,133.2
2021-04-30T03:43:03,42.805,6.029,0.031,-0.008,0.039,101.0,102.0,101.0,13.4,1505.2,327.7,-0.8,1.8,2469.31,13.28,0.032,104.5
2021-04-30T03:46:03,42.805,6.029,0.044,-0.025,0.005,102.0,103.0,100.0,13.3,1505.2,326.9,-0.7,1.8,2469.282,13.28,0.05,119.6
2021-04-30T03:49:03,42.805,6.029,0.048,-0.021,0.053,102.0,103.0,101.0,13.4,1505.2,325.4,-0.8,1.8,2469.291,13.28,0.052,113.6
2021-04-30T03:52:03,42.805,6.029,0.057,-0.04,0.014,102.0,104.0,101.0,13.3,1505.2,326.8,-0.7,1.8,2469.316,13.28,0.069,125.1
2021-04-30T03:55:03,42.805,6.029,0.04,-0.012,0.012,101.0,103.0,101.0,13.4,1505.2,326.3,-0.8,1.8,2469.3,13.28,0.041,106.7
2021-04-30T03:58:03,42.805,6.029,0.026,-0.029,-0.008,101.0,103.0,101.0,13.3,1505.2,329.2,-0.7,1.8,2469.273,13.28,0.038,138.1
2021-04-30T04:04:03,42.805,6.029,0.03,-0.033,0.018,102.0,104.0,101.0,13.4,1505.2,326.1,-0.7,1.8,2469.33,13.28,0.044,137.7
2021-04-30T04:07:03,42.805,6.029,0.05,-0.039,-0.006,101.0,103.0,101.0,13.4,1505.2,329.1,-0.7,1.8,2469.297,13.28,0.063,128.0
2021-04-30T04:10:03,42.805,6.029,0.02,-0.02,0.001,102.0,105.0,101.0,13.4,1505.2,329.1,-0.7,1.8,2469.303,13.28,0.028,135.0
2021-04-30T04:13:03,42.805,6.029,0.015,-0.017,0.031,101.0,103.0,101.0,13.4,1505.2,327.9,-0.7,1.9,2469.319,13.28,0.022,138.6
2021-04-30T04:16:03,42.805,6.029,0.054,-0.011,0.033,102.0,103.0,101.0,13.3,1505.2,325.9,-0.7,1.8,2469.273,13.28,0.055,101.5
2021-04-30T04:19:03,42.805,6.029,0.014,-0.003,-0.002,101.0,104.0,101.0,13.3,1505.2,325.4,-0.8,1.8,2469.286,13.28,0.014,102.1
2021-04-30T04:22:03,42.805,6.029,0.023,-0.001,0.024,100.0,103.0,102.0,13.4,1505.2,325.6,-0.7,1.8,2469.27,13.28,0.023,92.5
2021-04-30T04:25:03,42.805,6.029,0.042,-0.022,0.021,102.0,106.0,99.0,13.3,1505.2,324.1,-0.7,1.8,2469.282,13.28,0.047,117.6
2021-04-30T04:28:03,42.805,6.029,0.021,-0.027,0.018,100.0,104.0,101.0,13.3,1505.2,326.2,-0.8,1.8,2469.294,13.28,0.034,142.1
2021-04-30T04:31:03,42.805,6.029,0.024,-0.021,0.007,102.0,103.0,101.0,13.4,1505.2,329.1,-0.8,1.8,2469.261,13.28,0.031,131.2
2021-04-30T04:34:03,42.805,6.029,0.013,-0.008,0.016,101.0,103.0,100.0,13.3,1505.2,327.6,-0.7,1.8,2469.286,13.28,0.015,121.6
2021-04-30T04:37:03,42.805,6.029,0.019,-0.004,-0.023,102.0,105.0,102.0,13.4,1505.2,329.0,-0.7,1.8,2469.295,13.28,0.019,101.9
2021-04-30T04:40:03,42.805,6.029,0.024,-0.026,0.02,101.0,104.0,100.0,13.4,1505.2,324.2,-0.8,1.8,2469.268,13.28,0.035,137.3
2021-04-30T04:43:03,42.805,6.029,0.04,-0.028,0.001,101.0,104.0,101.0,13.3,1505.2,325.9,-0.7,1.8,2469.318,13.28,0.048,125.0
2021-04-30T04:46:03,42.805,6.029,0.032,-0.018,0.027,101.0,103.0,101.0,13.4,1505.2,326.4,-0.7,1.8,2469.276,13.28,0.036,119.4
2021-04-30T04:49:03,42.805,6.029,0.028,-0.001,0.043,101.0,103.0,101.0,13.3,1505.2,326.8,-0.7,1.8,2469.276,13.28,0.028,92.0
2021-04-30T04:52:03,42.805,6.029,0.039,-0.032,-0.001,101.0,104.0,101.0,13.3,1505.2,328.9,-0.8,1.9,2469.286,13.28,0.05,129.4
2021-04-30T04:55:03,42.805,6.029,0.02,-0.028,0.0,102.0,102.0,101.0,13.4,1505.2,327.6,-0.8,1.9,2469.294,13.28,0.034,144.5
2021-04-30T04:58:03,42.805,6.029,0.046,-0.01,0.03,101.0,104.0,101.0,13.4,1505.2,326.7,-0.7,1.8,2469.313,13.28,0.047,102.3
2021-04-30T05:04:03,42.805,6.029,0.055,-0.033,0.011,100.0,103.0,101.0,13.3,1505.2,323.9,-0.7,1.8,2469.339,13.28,0.064,121.0
2021-04-30T05:07:03,42.805,6.029,0.015,-0.031,-0.012,101.0,103.0,101.0,13.4,1505.2,324.3,-0.8,1.8,2469.336,13.28,0.034,154.2
2021-04-30T05:10:03,42.805,6.029,0.035,-0.023,0.024,101.0,103.0,101.0,13.4,1505.2,327.5,-0.7,1.9,2469.314,13.28,0.041,123.3
2021-04-30T05:13:03,42.805,6.029,0.03,-0.019,-0.006,102.0,104.0,100.0,13.3,1505.2,325.7,-0.8,1.8,2469.348,13.28,0.035,122.3
2021-04-30T05:16:03,42.805,6.029,0.027,-0.034,0.027,102.0,103.0,101.0,13.4,1505.2,328.2,-0.7,1.8,2469.289,13.28,0.043,141.5
2021-04-30T05:19:03,42.805,6.029,0.019,-0.034,0.021,101.0,104.0,101.0,13.4,1505.2,328.2,-0.7,1.8,2469.338,13.28,0.038,150.8
2021-04-30T05:22:03,42.805,6.029,0.039,-0.017,0.034,101.0,104.0,100.0,13.4,1505.2,325.3,-0.7,1.8,2469.319,13.28,0.042,113.5
2021-04-30T05:25:03,42.805,6.029,0.022,-0.031,-0.029,101.0,102.0,101.0,13.4,1505.2,326.5,-0.8,1.8,2469.332,13.28,0.038,144.6
2021-04-30T05:28:03,42.805,6.029,0.012,-0.025,0.025,101.0,103.0,100.0,13.3,1505.2,329.1,-0.8,1.8,2469.289,13.28,0.027,154.4
2021-04-30T05:31:03,42.805,6.029,0.01,-0.026,-0.003,101.0,101.0,100.0,13.3,1505.2,324.4,-0.8,1.8,2469.286,13.28,0.027,159.0
2021-04-30T05:34:03,42.805,6.029,0.016,-0.025,0.008,101.0,102.0,102.0,13.4,1505.2,327.3,-0.7,1.8,2469.322,13.28,0.029,147.4
2021-04-30T05:37:03,42.805,6.029,0.055,-0.019,0.016,101.0,103.0,100.0,13.3,1505.2,325.6,-0.8,1.8,2469.309,13.28,0.058,109.1
2021-04-30T05:40:03,42.805,6.029,0.043,-0.031,0.032,101.0,104.0,101.0,13.3,1505.2,327.4,-0.8,1.8,2469.322,13.28,0.053,125.8
2021-04-30T05:43:03,42.805,6.029,0.031,-0.007,0.027,100.0,104.0,101.0,13.4,1505.2,325.9,-0.8,1.8,2469.343,13.28,0.031,102.7
2021-04-30T05:46:03,42.805,6.029,0.034,-0.028,0.002,101.0,103.0,101.0,13.4,1505.2,324.0,-0.7,1.8,2469.348,13.28,0.044,129.5
2021-04-30T05:49:03,42.805,6.029,0.019,-0.036,0.022,100.0,104.0,100.0,13.4,1505.2,323.6,-0.7,1.8,2469.37,13.28,0.04,152.2
2021-04-30T05:52:03,42.805,6.029,0.014,-0.037,-0.009,102.0,101.0,101.0,13.4,1505.2,325.2,-0.7,1.8,2469.349,13.28,0.039,159.3
2021-04-30T05:55:03,42.805,6.029,0.044,-0.034,0.009,100.0,103.0,100.0,13.3,1505.2,325.6,-0.8,1.8,2469.383,13.28,0.055,127.7
2021-04-30T05:58:03,42.805,6.029,0.021,-0.005,0.028,102.0,103.0,99.0,13.3,1505.2,325.9,-0.8,1.8,2469.33,13.28,0.021,103.4
2021-04-30T06:04:03,42.805,6.029,0.023,-0.012,0.042,101.0,102.0,101.0,13.4,1505.2,327.7,-0.8,1.8,2469.372,13.28,0.025,117.6
2021-04-30T06:07:03,42.805,6.029,0.036,-0.015,0.018,101.0,102.0,100.0,13.4,1505.2,324.9,-0.8,1.8,2469.358,13.28,0.039,112.6
2021-04-30T06:10:03,42.805,6.029,0.033,-0.033,0.028,103.0,102.0,100.0,13.3,1505.2,328.8,-0.7,1.8,2469.397,13.28,0.046,135.0
2021-04-30T06:13:03,42.805,6.029,0.031,-0.044,0.017,101.0,103.0,100.0,13.4,1505.2,329.1,-0.8,1.9,2469.431,13.28,0.053,144.8
2021-04-30T06:16:03,42.805,6.029,0.027,-0.034,-0.003,103.0,104.0,100.0,13.4,1505.2,329.0,-0.7,1.8,2469.388,13.28,0.043,141.5
2021-04-30T06:19:03,42.805,6.029,0.024,-0.025,0.014,100.0,102.0,101.0,13.4,1505.2,325.1,-0.8,1.8,2469.385,13.28,0.034,136.2
2021-04-30T06:22:03,42.805,6.029,0.019,-0.044,-0.007,100.0,105.0,101.0,13.4,1505.2,328.1,-0.8,1.8,2469.448,13.28,0.047,156.6
2021-04-30T06:25:03,42.805,6.029,0.04,-0.014,0.068,101.0,105.0,100.0,13.4,1505.2,325.0,-0.8,1.8,2469.44,13.28,0.042,109.3
2021-04-30T06:28:03,42.805,6.029,0.009,-0.021,0.004,101.0,105.0,102.0,13.4,1505.2,325.7,-0.8,1.8,2469.375,13.28,0.022,156.8
2021-04-30T06:31:03,42.805,6.029,0.025,-0.029,-0.005,102.0,104.0,100.0,13.4,1505.2,329.1,-0.7,1.8,2469.454,13.28,0.038,139.2
2021-04-30T06:34:03,42.805,6.029,0.049,0.011,0.047,102.0,104.0,101.0,13.3,1505.2,323.7,-0.8,1.8,2469.461,13.28,0.05,77.3
2021-04-30T06:37:03,42.805,6.029,0.014,-0.003,0.007,102.0,103.0,100.0,13.4,1505.2,328.2,-0.8,1.8,2469.431,13.28,0.014,102.1
2021-04-30T06:40:03,42.805,6.029,0.0,-0.001,0.024,101.0,102.0,101.0,13.3,1505.2,328.9,-0.7,1.8,2469.463,13.28,0.001,180.0
2021-04-30T06:43:03,42.805,6.029,0.038,-0.015,0.014,101.0,103.0,100.0,13.4,1505.2,328.7,-0.8,1.8,2469.437,13.28,0.04,111.5
2021-04-30T06:46:03,42.805,6.029,0.051,-0.037,0.017,101.0,104.0,100.0,13.4,1505.2,326.9,-0.8,1.8,2469.451,13.28,0.063,126.0
2021-04-30T06:49:03,42.805,6.029,0.03,-0.002,0.025,102.0,104.0,101.0,13.4,1505.2,325.4,-0.8,1.9,2469.461,13.28,0.03,93.8
2021-04-30T06:52:03,42.805,6.029,0.033,-0.017,0.035,102.0,102.0,100.0,13.4,1505.2,328.5,-0.7,1.8,2469.411,13.28,0.037,117.3
2021-04-30T06:55:03,42.805,6.029,0.015,-0.015,0.024,101.0,106.0,101.0,13.4,1505.2,324.9,-0.7,1.9,2469.509,13.28,0.021,135.0
2021-04-30T06:58:03,42.805,6.029,0.032,-0.016,0.014,102.0,104.0,101.0,13.4,1505.2,325.8,-0.7,1.8,2469.467,13.28,0.035,116.6
2021-04-30T07:04:03,42.805,6.029,0.046,-0.027,0.029,101.0,104.0,101.0,13.4,1505.2,328.2,-0.8,1.8,2469.491,13.28,0.053,120.4
2021-04-30T07:07:03,42.805,6.029,0.028,-0.034,0.0,102.0,102.0,100.0,13.4,1505.2,328.6,-0.8,1.8,2469.457,13.28,0.044,140.5
2021-04-30T07:10:03,42.805,6.029,0.039,-0.035,-0.01,101.0,104.0,100.0,13.3,1505.2,326.6,-0.8,1.8,2469.491,13.28,0.052,131.9
2021-04-30T07:13:03,42.805,6.029,0.038,-0.029,0.018,101.0,102.0,101.0,13.3,1505.2,324.0,-0.7,1.8,2469.48,13.28,0.047,127.3
2021-04-30T07:16:03,42.805,6.029,0.016,-0.024,0.013,100.0,103.0,101.0,13.4,1505.2,325.3,-0.8,1.8,2469.492,13.28,0.028,146.3
2021-04-30T07:19:03,42.805,6.029,0.015,-0.031,-0.023,101.0,102.0,101.0,13.4,1505.2,328.9,-0.8,1.8,2469.512,13.28,0.034,154.2
2021-04-30T07:22:03,42.805,6.029,0.029,-0.015,0.046,100.0,102.0,100.0,13.4,1505.2,327.3,-0.8,1.8,2469.489,13.28,0.032,117.4
2021-04-30T07:25:03,42.805,6.029,0.034,-0.023,0.01,101.0,104.0,100.0,13.3,1505.2,329.2,-0.7,1.8,2469.483,13.28,0.041,124.1
2021-04-30T07:28:03,42.805,6.029,0.039,-0.025,0.02,101.0,103.0,101.0,13.4,1505.2,326.4,-0.7,1.8,2469.553,13.28,0.046,122.7
2021-04-30T07:31:03,42.805,6.029,0.018,-0.023,-0.004,101.0,103.0,100.0,13.3,1505.2,327.5,-0.8,1.8,2469.515,13.28,0.029,142.0
2021-04-30T07:34:03,42.805,6.029,-0.001,-0.028,-0.021,101.0,102.0,101.0,13.4,1505.2,327.6,-0.7,1.8,2469.496,13.28,0.028,182.0
2021-04-30T07:37:03,42.805,6.029,0.016,-0.017,0.011,102.0,103.0,101.0,13.3,1505.2,325.2,-0.7,1.8,2469.516,13.28,0.023,136.7
2021-04-30T07:40:03,42.805,6.029,0.02,-0.03,0.033,100.0,103.0,102.0,13.4,1505.2,329.0,-0.8,1.8,2469.535,13.28,0.036,146.3
2021-04-30T07:43:03,42.805,6.029,0.04,-0.014,0.04,102.0,102.0,101.0,13.4,1505.2,328.0,-0.8,1.8,2469.521,13.28,0.042,109.3
2021-04-30T07:46:03,42.805,6.029,0.018,-0.027,0.015,101.0,105.0,101.0,13.4,1505.2,327.9,-0.8,1.8,2469.54,13.28,0.032,146.3
2021-04-30T07:49:03,42.805,6.029,-0.001,-0.024,0.003,101.0,103.0,101.0,13.4,1505.2,325.2,-0.7,1.8,2469.549,13.28,0.024,182.4
2021-04-30T07:52:03,42.805,6.029,0.043,-0.026,0.013,102.0,104.0,101.0,13.4,1505.2,325.5,-0.8,1.8,2469.581,13.28,0.05,121.2
2021-04-30T07:55:03,42.805,6.029,0.024,-0.04,0.035,102.0,103.0,101.0,13.4,1505.2,329.3,-0.8,1.8,2469.546,13.28,0.046,149.0
2021-04-30T07:58:03,42.805,6.029,0.03,-0.026,-0.004,101.0,104.0,100.0,13.4,1505.2,326.0,-0.8,1.8,2469.499,13.28,0.039,130.9
2021-04-30T08:04:03,42.805,6.029,0.044,-0.026,0.039,101.0,105.0,100.0,13.4,1505.2,324.6,-0.7,1.8,2469.543,13.28,0.051,120.6
2021-04-30T08:07:03,42.805,6.029,0.032,-0.022,0.025,102.0,104.0,100.0,13.4,1505.2,327.8,-0.7,1.9,2469.593,13.28,0.038,124.5
2021-04-30T08:10:03,42.805,6.029,0.041,-0.019,0.026,101.0,104.0,101.0,13.4,1505.2,324.8,-0.7,1.8,2469.576,13.28,0.045,114.9
2021-04-30T08:13:03,42.805,6.029,0.021,-0.003,0.039,101.0,102.0,101.0,13.3,1505.2,326.6,-0.8,1.8,2469.586,13.28,0.021,98.1
2021-04-30T08:16:03,42.805,6.029,0.037,-0.021,0.028,101.0,105.0,100.0,13.4,1505.2,328.4,-0.7,1.8,2469.608,13.28,0.042,119.6
2021-04-30T08:19:03,42.805,6.029,0.046,-0.03,0.01,102.0,104.0,100.0,13.4,1505.2,323.9,-0.8,1.9,2469.555,13.28,0.054,123.1
2021-04-30T08:22:03,42.805,6.029,0.046,-0.028,0.023,102.0,104.0,100.0,13.3,1505.2,327.8,-0.8,1.8,2469.545,13.28,0.053,121.3
2021-04-30T08:25:03,42.805,6.029,0.023,-0.025,0.011,100.0,105.0,100.0,13.4,1505.2,325.5,-0.7,1.8,2469.592,13.28,0.033,137.4
2021-04-30T08:28:03,42.805,6.029,0.007,-0.026,0.02,101.0,105.0,100.0,13.4,1505.2,327.5,-0.7,1.9,2469.573,13.28,0.026,164.9
2021-04-30T08:31:03,42.805,6.029,0.014,-0.042,0.009,101.0,105.0,100.0,13.4,1505.2,326.1,-0.7,1.8,2469.64,13.28,0.044,161.6
2021-04-30T08:34:03,42.805,6.029,0.031,-0.036,0.028,103.0,104.0,100.0,13.3,1505.2,329.3,-0.8,1.8,2469.605,13.28,0.047,139.3
2021-04-30T08:37:03,42.805,6.029,0.024,-0.04,-0.018,101.0,105.0,101.0,13.3,1505.2,324.1,-0.8,1.8,2469.601,13.28,0.046,149.0
2021-04-30T08:40:03,42.805,6.029,0.022,-0.047,-0.011,101.0,105.0,101.0,13.3,1505.2,326.5,-0.7,1.8,2469.577,13.28,0.051,154.9
2021-04-30T08:43:03,42.805,6.029,0.03,-0.023,0.016,102.0,104.0,100.0,13.4,1505.2,327.1,-0.7,1.8,2469.593,13.28,0.037,127.5
2021-04-30T08:46:03,42.805,6.029,0.001,-0.014,-0.005,100.0,104.0,101.0,13.4,1505.2,327.7,-0.7,1.8,2469.562,13.28,0.014,175.9
2021-04-30T08:49:03,42.805,6.029,0.036,-0.032,0.033,101.0,103.0,100.0,13.4,1505.2,328.7,-0.7,1.8,2469.617,13.28,0.048,131.6
2021-04-30T08:52:03,42.805,6.029,0.045,-0.013,0.055,101.0,105.0,100.0,13.4,1505.2,327.7,-0.8,1.9,2469.604,13.28,0.046,106.1
2021-04-30T08:55:03,42.805,6.029,0.039,-0.019,0.039,101.0,106.0,101.0,13.4,1505.2,324.0,-0.7,1.8,2469.608,13.28,0.043,116.0
2021-04-30T08:58:03,42.805,6.029,0.034,-0.03,0.022,100.0,104.0,101.0,13.4,1505.2,328.6,-0.8,1.8,2469.636,13.28,0.045,131.4
2021-04-30T09:04:03,42.805,6.029,0.016,-0.018,0.025,100.0,103.0,100.0,13.4,1505.2,324.2,-0.8,1.8,2469.635,13.28,0.024,138.4
2021-04-30T09:07:03,42.805,6.029,0.039,-0.023,0.046,101.0,104.0,100.0,13.4,1505.2,326.0,-0.7,1.8,2469.628,13.28,0.045,120.5
2021-04-30T09:10:03,42.805,6.029,0.015,-0.029,0.013,100.0,105.0,100.0,13.3,1505.2,327.1,-0.8,1.8,2469.618,13.28,0.032,152.6
2021-04-30T09:13:03,42.805,6.029,0.043,-0.051,0.01,100.0,103.0,102.0,13.3,1505.2,325.5,-0.7,1.9,2469.619,13.28,0.066,139.9
2021-04-30T09:16:03,42.805,6.029,0.053,-0.01,0.041,101.0,105.0,100.0,13.3,1505.2,325.2,-0.7,1.8,2469.585,13.28,0.053,100.7
2021-04-30T09:19:03,42.805,6.029,0.058,-0.032,0.013,102.0,104.0,100.0,13.4,1505.2,325.9,-0.7,1.8,2469.606,13.28,0.066,118.9
2021-04-30T09:22:03,42.805,6.029,0.069,-0.008,0.054,102.0,104.0,99.0,13.3,1505.2,329.4,-0.8,1.8,2469.594,13.28,0.069,96.6
2021-04-30T09:25:03,42.805,6.029,0.028,-0.034,0.013,102.0,104.0,100.0,13.3,1505.2,325.5,-0.8,1.8,2469.603,13.28,0.044,140.5
2021-04-30T09:28:03,42.805,6.029,0.052,-0.018,0.031,100.0,106.0,99.0,13.3,1505.2,325.9,-0.8,1.9,2469.647,13.28,0.055,109.1
2021-04-30T09:31:03,42.805,6.029,0.033,-0.021,0.012,102.0,105.0,100.0,13.4,1505.2,327.0,-0.7,1.8,2469.625,13.28,0.039,122.5
2021-04-30T09:34:03,42.805,6.029,0.052,-0.038,-0.022,101.0,101.0,102.0,13.4,1505.2,324.8,-0.7,1.9,2469.638,13.28,0.064,126.2
2021-04-30T09:37:03,42.805,6.029,0.012,-0.004,0.017,101.0,105.0,100.0,13.4,1505.2,325.6,-0.7,1.8,2469.595,13.28,0.012,108.4
2021-04-30T09:40:03,42.805,6.029,0.042,-0.025,0.035,101.0,103.0,101.0,13.4,1505.2,326.8,-0.7,1.8,2469.629,13.28,0.048,120.8
2021-04-30T09:43:03,42.805,6.029,0.059,-0.004,0.041,101.0,103.0,100.0,13.4,1505.2,326.5,-0.8,1.8,2469.623,13.28,0.059,93.9
2021-04-30T09:46:03,42.805,6.029,0.055,-0.062,-0.002,101.0,104.0,100.0,13.4,1505.2,329.2,-0.8,1.8,2469.623,13.28,0.082,138.4
2021-04-30T09:49:03,42.805,6.029,0.031,-0.028,0.013,99.0,104.0,101.0,13.3,1505.2,324.8,-0.7,1.8,2469.614,13.28,0.041,132.1
2021-04-30T09:52:03,42.805,6.029,0.048,-0.02,0.054,101.0,104.0,100.0,13.3,1505.2,327.4,-0.7,1.8,2469.613,13.28,0.052,112.6
2021-04-30T09:55:03,42.805,6.029,0.032,-0.027,0.027,101.0,103.0,100.0,13.3,1505.2,326.1,-0.7,1.8,2469.622,13.28,0.041,130.2
2021-04-30T09:58:03,42.805,6.029,0.014,-0.042,0.009,101.0,105.0,99.0,13.3,1505.2,327.8,-0.7,1.8,2469.654,13.28,0.044,161.6